This demonstration page uses our WeatherBlox Daily Observations layout. Learn more.

Left ArrowRight Arrow

40.92945, -100.16068

Hourly Observations for January 25, 2021

Temp ( °F °C ) Dew Point ( °F °C ) Humidity (%) Winds ( mph kmh ) Pressure ( in mb ) Visibility ( mi km ) Precip ( " mm )
12:15 am 00:15 Cloudy with Mist and Fog 24 -4.2 23 -5 94 94 E 7 11 30.01 1016 2 3.21868 0 0
12:35 am 00:35 Cloudy with Mist and Fog 24 -4.2 23 -5 94 94 ESE 10 17 30 1016 1.25 2.011675 0 0
12:55 am 00:55 Cloudy with Mist and Fog 24 -4.3 23 -5 95 95 E 10 17 29.97 1015 0.75 1.207005 0 0
1:15 am 01:15 Cloudy with Light Snow 24 -4.3 23 -5 95 95 E 7 11 29.98 1015 1.75 2.816345 0 0
1:35 am 01:35 Cloudy with Light Snow 24 -4.4 23 -5.1 95 95 E 6 9 29.97 1015 2.5 4.02335 0 0
1:55 am 01:55 Cloudy with Light Snow 24 -4.5 22 -5.3 94 94 ENE 6 9 29.96 1015 1.75 2.816345 0.01 0.254
2:15 am 02:15 Cloudy with Light Snow 24 -4.5 22 -5.4 94 94 E 7 11 29.96 1015 3 4.82802 0 0
2:35 am 02:35 Cloudy with Light Snow 24 -4.5 22 -5.3 94 94 E 7 11 29.97 1015 3 4.82802 0 0
2:55 am 02:55 Cloudy with Snow 24 -4.6 22 -5.5 94 94 E 6 9 29.95 1014 1 1.60934 0 0
3:15 am 03:15 Cloudy with Light Snow 24 -4.7 22 -5.6 94 94 E 7 11 29.94 1014 1.25 2.011675 0 0
3:35 am 03:35 Cloudy with Light Snow 24 -4.7 22 -5.6 94 94 E 7 11 29.93 1014 2.5 4.02335 0 0
3:55 am 03:55 Cloudy with Light Snow 23 -4.8 22 -5.7 94 94 E 7 11 29.92 1013 4 6.43736 0 0
4:15 am 04:15 Cloudy with Light Snow 24 -4.7 22 -5.6 94 94 E 9 15 29.91 1013 5 8.0467 0 0
4:35 am 04:35 Cloudy 24 -4.7 22 -5.7 93 93 E 9 15 29.91 1013 10 16.0934 0 0
4:55 am 04:55 Cloudy 24 -4.7 22 -5.8 92 92 E 8 13 29.91 1013 7 11.26538 0 0
5:15 am 05:15 Cloudy with Light Snow 24 -4.6 21 -6 90 90 E 9 15 29.89 1012 5 8.0467 0 0
5:35 am 05:35 Cloudy with Light Snow 24 -4.6 21 -6 90 90 E 8 13 29.9 1013 3 4.82802 0 0
5:55 am 05:55 Cloudy with Snow 24 -4.7 22 -5.8 92 92 ENE 7 11 29.89 1012 1 1.60934 0 0
6:15 am 06:15 Cloudy with Snow 24 -4.7 22 -5.7 93 93 ENE 8 13 29.88 1012 0.5 0.80467 0 0
6:35 am 06:35 Cloudy with Snow 24 -4.7 22 -5.7 93 93 ENE 8 13 29.88 1012 1 1.60934 0.01 0.254
6:55 am 06:55 Cloudy with Snow 24 -4.7 22 -5.8 92 92 ENE 8 13 29.89 1012 0.5 0.80467 0.01 0.254
7:15 am 07:15 Cloudy with Light Snow 24 -4.7 21 -5.9 91 91 NE 8 13 29.89 1012 1.25 2.011675 0.01 0.254
7:35 am 07:35 Cloudy with Light Snow 24 -4.7 22 -5.8 92 92 NE 10 17 29.89 1012 3 4.82802 0.01 0.254
7:55 am 07:55 Cloudy with Light Snow 23 -4.8 21 -6 91 91 NNE 9 15 29.89 1012 3 4.82802 0.01 0.254
8:15 am 08:15 Cloudy with Light Snow 23 -4.8 21 -6 91 91 NE 10 17 29.9 1013 1.5 2.41401 0 0
8:35 am 08:35 Cloudy with Light Snow 23 -4.8 21 -6.1 91 91 NNE 12 19 29.9 1013 1.5 2.41401 0 0
8:55 am 08:55 Cloudy with Light Snow 23 -4.8 21 -6.1 91 91 NNE 10 17 29.89 1012 1 1.60934 0 0
9:15 am 09:15 Cloudy with Light Snow 24 -4.7 21 -6 91 91 NNE 12 19 29.9 1013 1 1.60934 0 0
9:35 am 09:35 Cloudy with Light Snow 24 -4.7 21 -6 91 91 NNE 10 17 29.89 1012 1.25 2.011675 0 0
9:55 am 09:55 Cloudy with Light Snow 24 -4.7 21 -6.2 89 89 NNE 12 19 29.89 1012 1.75 2.816345 0 0
10:15 am 10:15 Cloudy with Light Snow 24 -4.7 20 -6.5 87 87 NNE 10 17 29.9 1013 2 3.21868 0 0
10:35 am 10:35 Cloudy with Light Snow 23 -5 20 -6.6 89 89 NNE 10 17 29.91 1013 0.75 1.207005 0 0
10:55 am 10:55 Cloudy with Light Snow 23 -5 20 -6.6 89 89 NNE 10 17 29.91 1013 0.75 1.207005 0 0
11:15 am 11:15 Cloudy with Light Snow 24 -4.7 21 -6.3 89 89 NNE 9 15 29.9 1013 1.25 2.011675 0 0
11:35 am 11:35 Cloudy with Light Snow 24 -4.6 20 -6.4 87 87 NNE 10 17 29.9 1013 2 3.21868 0 0
11:55 am 11:55 Cloudy with Light Snow 24 -4.6 21 -6.3 88 88 NE 15 24 29.89 1012 1.25 2.011675 0 0
12:15 pm 12:15 Cloudy with Light Snow 24 -4.7 20 -6.5 87 87 NE 13 20 29.88 1012 1.5 2.41401 0 0
12:35 pm 12:35 Cloudy with Light Snow 23 -5 20 -6.8 87 87 NE 16 26 29.88 1012 1.25 2.011675 0 0
12:55 pm 12:55 Cloudy with Light Snow 23 -4.8 20 -6.5 88 88 NNE 12 19 29.86 1011 1.75 2.816345 0.01 0.254
1:15 pm 13:15 Cloudy with Light Snow 24 -4.6 20 -6.5 87 87 NNE 15 24 29.84 1011 0.75 1.207005 0 0
1:35 pm 13:35 Cloudy with Light Snow 23 -4.8 20 -6.8 86 86 NNE 13 20 29.83 1010 1.75 2.816345 0 0
1:55 pm 13:55 Cloudy with Light Snow 23 -4.9 20 -6.8 87 87 NNE 16 26 29.84 1010 0.75 1.207005 0.01 0.254
2:15 pm 14:15 Cloudy with Light Snow 24 -4.7 20 -6.6 87 87 NNE 17 28 29.83 1010 1.25 2.011675 0 0
2:35 pm 14:35 Cloudy with Light Snow 23 -4.8 20 -6.6 87 87 N 12 19 29.83 1010 1.25 2.011675 0 0
2:55 pm 14:55 Cloudy with Light Snow 23 -5 20 -6.7 88 88 NNE 14 22 29.84 1010 1.5 2.41401 0 0
3:15 pm 15:15 Cloudy with Light Snow 23 -5 20 -6.8 87 87 NNE 14 22 29.85 1011 1.25 2.011675 0 0
3:35 pm 15:35 Cloudy with Light Snow 24 -4.7 20 -6.6 87 87 NNE 15 24 29.84 1011 1 1.60934 0 0
3:55 pm 15:55 Cloudy with Light Snow 23 -4.8 20 -6.7 87 87 N 15 24 29.85 1011 1.5 2.41401 0 0
4:15 pm 16:15 Cloudy with Light Snow 23 -5 20 -6.7 88 88 NNE 13 20 29.88 1012 1.75 2.816345 0 0
4:35 pm 16:35 Cloudy with Light Snow 23 -5.1 20 -6.9 87 87 NNE 12 19 29.89 1012 2 3.21868 0 0
4:55 pm 16:55 Cloudy with Light Snow 23 -5.1 20 -6.6 89 89 N 13 20 29.9 1012 1.5 2.41401 0 0
5:15 pm 17:15 Cloudy with Light Snow 22 -5.5 19 -7.1 89 89 NNE 13 20 29.91 1013 1.5 2.41401 0 0
5:35 pm 17:35 Cloudy with Light Snow 22 -5.7 19 -7.5 87 87 NNE 14 22 29.91 1013 1 1.60934 0 0
5:55 pm 17:55 Cloudy with Light Snow 22 -5.8 18 -7.6 87 87 NNE 15 24 29.92 1013 1.25 2.011675 0 0
6:15 pm 18:15 Cloudy with Light Snow 21 -6 18 -7.8 87 87 NNE 14 22 29.94 1014 2.5 4.02335 0 0
6:35 pm 18:35 Cloudy with Light Snow 21 -6.1 18 -8 87 87 NNE 14 22 29.94 1014 2 3.21868 0 0
6:55 pm 18:55 Windy with Snow Likely 21 -6.3 18 -8 88 88 NNE 21 33 29.94 1014 1.75 2.816345 0 0
7:15 pm 19:15 Cloudy with Light Snow 20 -6.5 17 -8.2 88 88 N 18 30 29.95 1014 1.75 2.816345 0 0
7:35 pm 19:35 Cloudy with Light Snow 20 -6.6 17 -8.5 87 87 N 18 30 29.95 1014 2.5 4.02335 0 0
7:55 pm 19:55 Windy with Snow Likely 20 -6.7 16 -8.7 86 86 NNE 20 31 29.96 1015 3 4.82802 0 0
8:15 pm 20:15 Windy with Snow Likely 20 -6.7 16 -9 84 84 N 21 33 29.96 1015 4 6.43736 0 0
8:35 pm 20:35 Cloudy with Light Snow 20 -6.8 16 -9 85 85 NNE 18 30 29.98 1015 4 6.43736 0 0
8:55 pm 20:55 Cloudy with Light Snow 20 -6.8 16 -9.1 84 84 NNE 18 30 29.98 1015 4 6.43736 0 0
10:35 pm 22:35 Cloudy with Light Snow 19 -7.1 16 -9.1 86 86 N 15 24 30.01 1016 2.5 4.02335 0 0
10:55 pm 22:55 Cloudy with Light Snow 19 -7.2 15 -9.2 86 86 NNE 14 22 30.02 1017 3 4.82802 0 0
11:15 pm 23:15 Cloudy with Light Snow 19 -7.2 16 -9.1 86 86 N 14 22 30.02 1017 3 4.82802 0 0
11:35 pm 23:35 Cloudy with Light Snow 19 -7.1 15 -9.2 85 85 NNE 15 24 30.02 1017 3 4.82802 0 0
11:55 pm 23:55 Cloudy with Light Snow 19 -7.5 15 -9.6 85 85 NNE 17 28 30.03 1017 4 6.43736 0 0

Powered by AerisWeather